Location: ????
(30.1475°N, 31.1342°E)
Time: 03:05:16
(UTC+00:00)

Cosmos 1666 Rocket - Pass Details

Date: 27 September 2022
Orbit: 602 x 633 km, 82.5° (Epoch: 30 November)

Event Time Altitude Azimuth Distance (km) Brightness Sun altitude
Rises 02:35:34 0° 346° (NNW) 2,923 7.0 -16.1°
Reaches altitude 10° 02:37:52 10° 340° (NNW) 2,014 6.1 -15.6°
Maximum altitude 02:42:08 46° 268° (W) 853 3.8 -14.7°
Drops below altitude 10° 02:46:23 10° 195° (SSW) 2,006 6.0 -13.8°
Sets 02:48:41 0° 189° (S) 2,909 6.9 -13.3°
